Вернуться в каталог

SES 22

АктивенСвязьGEO
NORAD 52933·PAYLOAD·🇱🇺 Luxembourg

Запущен Jun 29, 2022 с Cape Canaveral Space Force Station

Loading…

TLE

СвежийSource: CelesTrak SupGP

Эпоха: Sep 13, 2026, 23:30 UTC

1 52933C 22071A   26256.97916667  .00000195  00000+0  00000+0 0  2565
2 52933   0.0473 270.5267 0000922 243.3376  52.6089  1.00272974    11

Отслеживайте SES 22 в реальном времени с AllMySat

Download on the App Store